Вернуться в каталог

USA 202

АктивенВоенныеGEO
NORAD 33490·PAYLOAD·🇺🇸 United States

Запущен Jan 18, 2009 с Cape Canaveral Space Force Station

Loading…

TLE

СвежийSource: Mike McCants

Эпоха: Sep 14, 2026, 23:38 UTC

1 33490U 09001A   26257.98473222  .00000000  00000-0  00000-0 0    01
2 33490   8.9745  32.4365 0006686 257.3422 102.5905  1.00270000  2642

Отслеживайте USA 202 в реальном времени с AllMySat

Download on the App Store